Location: Deer Lodge Site
(39.6809°N, 119.9392°W)
Time: 08:50:46
(UTC-07:00)

Amateur Radio Satellites - All Passes

Search period start: 30 September 2014 08:20
Search period end: 01 October 2014 08:20
Location: Deer Lodge Site, 39.6809°N, 119.9392°W

Satellite Date Start Highest point End Downlink Frequencies (MHz)
Time Altitude Azimuth
PCSat 30 Sep 08:37:24 08:40:20 15° 104° (ESE) 08:43:17 145.825 MHz
UKube-1 30 Sep 09:43:44 09:46:53 19° 94° (E) 09:50:02 145.840 MHz, 145.915 MHz
RS-15 30 Sep 09:44:42 09:53:59 29° 33° (NNE) 10:03:29 29.354 - 29.394 USB, Beacon 29.352 USB
Sapphire 30 Sep 09:52:03 09:57:23 66° 115° (ESE) 10:02:46 437.095 MHz 1200 baud AX-25 AFSK
HO-68 30 Sep 09:58:51 10:06:02 67° 103° (ESE) 10:13:10 435.675 MHz FM
PCSat 30 Sep 10:17:43 10:23:06 70° 300° (WNW) 10:28:32 145.825 MHz
ZACube-1 30 Sep 10:22:09 10:25:13 18° 92° (E) 10:28:14 437.345 MHz
Oscar 11 30 Sep 10:50:12 10:54:33 88° 102° (ESE) 10:58:52 145.825 FM, Beacon 2401.500 USB
FUNcube-1 30 Sep 11:12:16 11:16:48 63° 101° (E) 11:21:12 145.950 - 145.970 MHz USB
UKube-1 30 Sep 11:19:11 11:23:10 35° 290° (WNW) 11:27:09 145.840 MHz, 145.915 MHz
Sapphire 30 Sep 11:37:24 11:41:18 20° 314° (NW) 11:45:14 437.095 MHz 1200 baud AX-25 AFSK
HO-68 30 Sep 11:47:39 11:53:07 24° 301° (WNW) 11:58:34 435.675 MHz FM
RS-15 30 Sep 11:56:54 12:08:07 86° 59° (ENE) 12:19:48 29.354 - 29.394 USB, Beacon 29.352 USB
ZACube-1 30 Sep 11:57:30 12:01:48 41° 288° (WNW) 12:05:59 437.345 MHz
PCSat 30 Sep 12:05:14 12:07:31 13° 320° (NW) 12:09:49 145.825 MHz
Oscar 19 30 Sep 12:48:23 12:52:37 26° 66° (ENE) 12:56:52 437.125 CW, 437.150 USB
JAS-1B 30 Sep 12:50:18 12:55:56 24° 64° (ENE) 13:00:58 435.800 - 435.900 CW/SSB
FUNcube-1 30 Sep 12:50:32 12:52:36 13° 297° (WNW) 12:54:39 145.950 - 145.970 MHz USB
ITAMSAT 1 30 Sep 13:00:24 13:03:06 15° 61° (ENE) 13:05:50 435.822 SSB
Uribyol 2 30 Sep 13:01:06 13:04:07 16° 61° (ENE) 13:07:08 436.500 FM
Oscar 16 30 Sep 13:28:15 13:33:22 63° 73° (ENE) 13:38:31 437.025 USB, Beacon 2401.1428
AO-27 30 Sep 13:36:30 13:41:01 32° 68° (ENE) 13:45:34 436.795 MHz FM
AO-Echo 30 Sep 13:43:58 13:48:18 39° 71° (ENE) 13:52:41 ?
AO-7 30 Sep 13:57:48 14:00:07 11° 44° (NE) 14:02:25 29.400 - 29.500 MHz
Gurwin Techsat 1B 30 Sep 13:57:57 14:02:09 25° 66° (ENE) 14:06:23 435.225 FM
Saudisat 1A 30 Sep 13:59:13 14:03:15 37° 115° (ESE) 14:07:19 436.775 MHz
RS-15 30 Sep 14:11:00 14:19:08 24° 258° (WSW) 14:27:32 29.354 - 29.394 USB, Beacon 29.352 USB
TMSAT-1 30 Sep 14:26:28 14:31:08 33° 68° (ENE) 14:35:49 436.925 FM
Oscar 19 30 Sep 14:26:58 14:31:45 37° 262° (W) 14:36:35 437.125 CW, 437.150 USB
MaSat-1 30 Sep 14:31:55 14:33:16 12° 49° (NE) 14:34:32 437.345 MHz
ITAMSAT 1 30 Sep 14:36:49 14:41:58 72° 257° (WSW) 14:47:10 435.822 SSB
Uribyol 2 30 Sep 14:37:52 14:43:00 66° 258° (WSW) 14:48:12 436.500 FM
JAS-1B 30 Sep 14:38:31 14:46:16 61° 258° (WSW) 14:52:46 435.800 - 435.900 CW/SSB
Uosat F 30 Sep 15:07:20 15:09:31 13° 60° (ENE) 15:11:43 435.120 FM
Oscar 16 30 Sep 15:10:16 15:13:08 15° 269° (W) 15:16:01 437.025 USB, Beacon 2401.1428
AO-27 30 Sep 15:15:57 15:20:28 30° 264° (W) 15:25:01 436.795 MHz FM
Oscar 10/S400 30 Sep 15:17:49 15:35:23 37° 151° (SSE) 15:58:06 145.825 - 145.975 CW/USB, Beacon 145.810 USB
AO-Echo 30 Sep 15:23:52 15:27:14 20° 267° (W) 15:30:39 ?
Gurwin Techsat 1B 30 Sep 15:36:53 15:41:52 41° 262° (W) 15:46:53 435.225 FM
Saudisat 1A 30 Sep 15:39:19 15:42:55 24° 313° (NW) 15:46:32 436.775 MHz
AO-7 30 Sep 15:43:04 15:51:01 53° 65° (ENE) 15:58:58 29.400 - 29.500 MHz
TMSAT-1 30 Sep 16:06:24 16:11:00 30° 264° (W) 16:15:38 436.925 FM
MaSat-1 30 Sep 16:07:00 16:10:01 34° 252° (WSW) 16:12:40 437.345 MHz
KITSAT 1 30 Sep 16:36:41 16:43:55 38° 108° (ESE) 16:51:09 435.175 FM
Uosat F 30 Sep 16:42:39 16:47:38 77° 257° (WSW) 16:52:40 435.120 FM
OPAL 30 Sep 16:51:13 16:54:12 16° 93° (E) 16:57:08 ?
PCSat 30 Sep 17:24:54 17:27:35 14° 41° (NE) 17:30:16 145.825 MHz
AO-7 30 Sep 17:36:45 17:44:01 34° 263° (W) 17:51:20 29.400 - 29.500 MHz
JAS-2 30 Sep 17:48:36 17:53:44 71° 74° (ENE) 17:59:06 435.800 - 435.900 CW/SSB, 435.910 FM
Hamsat 30 Sep 17:52:08 17:56:24 62° 75° (ENE) 18:00:40 145.90 MHz
OPAL 30 Sep 18:28:26 18:33:27 59° 290° (WNW) 18:38:22 ?
KITSAT 1 30 Sep 18:31:18 18:39:05 50° 307° (NW) 18:46:55 435.175 FM
Sapphire 30 Sep 18:40:57 18:46:09 44° 56° (NE) 18:51:19 437.095 MHz 1200 baud AX-25 AFSK
SO-67 30 Sep 18:48:44 18:51:46 29° 72° (ENE) 18:54:48 435.3500 MHz FM
SO-50 30 Sep 18:49:37 18:53:11 24° 112° (ESE) 18:56:50 436.795 FM
PCSat 30 Sep 19:06:28 19:11:56 78° 61° (ENE) 19:17:20 145.825 MHz
STRAND 1 30 Sep 19:29:11 19:34:09 46° 99° (E) 19:39:05 ?
Hamsat 30 Sep 19:31:37 19:32:43 11° 270° (W) 19:33:49 145.90 MHz
JAS-2 30 Sep 19:37:43 19:39:33 12° 272° (W) 19:41:24 435.800 - 435.900 CW/SSB, 435.910 FM
PANSAT 30 Sep 20:12:20 20:13:41 12° 168° (SSE) 20:15:02 not established
SO-67 30 Sep 20:23:02 20:24:51 14° 267° (W) 20:26:40 435.3500 MHz FM
Sapphire 30 Sep 20:24:56 20:29:17 25° 253° (WSW) 20:33:37 437.095 MHz 1200 baud AX-25 AFSK
HO-68 30 Sep 20:26:25 20:33:08 46° 66° (ENE) 20:39:53 435.675 MHz FM
SO-50 30 Sep 20:29:23 20:33:32 36° 309° (NW) 20:37:48 436.795 FM
KITSAT 1 30 Sep 20:32:26 20:36:43 15° 332° (NNW) 20:41:01 435.175 FM
UKube-1 30 Sep 20:39:10 20:41:51 16° 65° (ENE) 20:44:33 145.840 MHz, 145.915 MHz
AO-40 30 Sep 20:45:32 23:43:17 36° 196° (SSW) 04:56:03 Beacon 2401.320
PCSat 30 Sep 20:52:09 20:54:36 13° 257° (WSW) 20:57:04 145.825 MHz
UOSAT-12 30 Sep 20:58:35 21:02:55 42° 116° (ESE) 21:07:21 437.025 FM, 437.400 FM
STRAND 1 30 Sep 21:09:11 21:12:59 21° 296° (WNW) 21:16:47 ?
ZACube-1 30 Sep 21:18:38 21:21:05 15° 64° (ENE) 21:23:34 437.345 MHz
ISS 30 Sep 21:36:15 21:38:50 21° 132° (SE) 21:41:25 145.800 FM
Oscar 11 30 Sep 21:44:08 21:48:26 62° 75° (ENE) 21:52:45 145.825 FM, Beacon 2401.500 USB
PANSAT 30 Sep 21:50:48 21:53:08 15° 180° (S) 21:55:28 not established
FUNcube-1 30 Sep 22:07:31 22:11:49 45° 72° (ENE) 22:16:14 145.950 - 145.970 MHz USB
UKube-1 30 Sep 22:13:32 22:17:41 44° 260° (W) 22:21:51 145.840 MHz, 145.915 MHz
HO-68 30 Sep 22:14:41 22:20:57 33° 263° (W) 22:27:16 435.675 MHz FM
Saudisat 1A 30 Sep 22:26:40 22:30:25 26° 48° (NE) 22:34:07 436.775 MHz
UOSAT-12 30 Sep 22:39:26 22:43:14 24° 314° (NW) 22:47:05 437.025 FM, 437.400 FM
ZACube-1 30 Sep 22:52:31 22:56:58 58° 260° (W) 23:01:31 437.345 MHz
ISS 30 Sep 23:12:10 23:15:21 41° 328° (NNW) 23:18:32 145.800 FM
Oscar 11 30 Sep 23:23:45 23:24:59 11° 270° (W) 23:26:13 145.825 FM, Beacon 2401.500 USB
PANSAT 30 Sep 23:31:28 23:32:35 11° 193° (SSW) 23:33:43 not established
FUNcube-1 30 Sep 23:45:33 23:48:26 17° 268° (W) 23:51:22 145.950 - 145.970 MHz USB
Saudisat 1A 01 Oct 00:06:01 00:10:01 34° 245° (WSW) 00:13:59 436.775 MHz
KITSAT 1 01 Oct 00:30:33 00:36:09 20° 35° (NE) 00:41:44 435.175 FM
ISS 01 Oct 00:51:05 00:52:44 13° 347° (NNW) 00:54:24 145.800 FM
Oscar 16 01 Oct 01:41:34 01:45:40 24° 94° (E) 01:49:43 437.025 USB, Beacon 2401.1428
AO-27 01 Oct 01:52:29 01:54:07 11° 89° (E) 01:55:44 436.795 MHz FM
AO-Echo 01 Oct 01:52:51 01:55:36 15° 91° (E) 01:58:22 ?
RS-15 01 Oct 02:18:57 02:29:44 62° 114° (ESE) 02:40:23 29.354 - 29.394 USB, Beacon 29.352 USB
JAS-1B 01 Oct 02:23:59 02:29:10 34° 98° (E) 02:34:45 435.800 - 435.900 CW/SSB
KITSAT 1 01 Oct 02:25:00 02:33:05 72° 58° (ENE) 02:41:07 435.175 FM
ISS 01 Oct 02:29:23 02:30:36 12° 8° (N) 02:31:49 145.800 FM
Oscar 19 01 Oct 02:38:56 02:44:07 83° 103° (ESE) 02:49:14 437.125 CW, 437.150 USB
TMSAT-1 01 Oct 02:44:36 02:47:06 13° 90° (E) 02:49:36 436.925 FM
ITAMSAT 1 01 Oct 02:50:39 02:55:38 43° 99° (E) 03:00:36 435.822 SSB
Uribyol 2 01 Oct 02:51:31 02:56:34 47° 100° (E) 03:01:35 436.500 FM
Oscar 16 01 Oct 03:20:20 03:25:07 39° 290° (WNW) 03:29:52 437.025 USB, Beacon 2401.1428
SO-50 01 Oct 03:21:23 03:25:09 22° 46° (NE) 03:28:56 436.795 FM
AO-27 01 Oct 03:28:57 03:34:12 80° 285° (WNW) 03:39:25 436.795 MHz FM
AO-Echo 01 Oct 03:29:44 03:34:42 63° 286° (WNW) 03:39:48 ?
AO-7 01 Oct 03:47:32 03:52:16 16° 90° (E) 03:56:57 29.400 - 29.500 MHz
Gurwin Techsat 1B 01 Oct 03:53:31 03:58:51 85° 104° (ESE) 04:04:10 435.225 FM
OPAL 01 Oct 04:04:34 04:08:56 28° 64° (ENE) 04:13:19 ?
ISS 01 Oct 04:05:12 04:08:09 28° 28° (NNE) 04:11:05 145.800 FM
JAS-1B 01 Oct 04:14:56 04:19:48 30° 293° (WNW) 04:24:59 435.800 - 435.900 CW/SSB
Oscar 19 01 Oct 04:20:41 04:22:43 12° 300° (WNW) 04:24:45 437.125 CW, 437.150 USB
KITSAT 1 01 Oct 04:21:39 04:27:42 24° 256° (WSW) 04:33:45 435.175 FM
TMSAT-1 01 Oct 04:22:14 04:27:32 71° 286° (WNW) 04:32:48 436.925 FM
ITAMSAT 1 01 Oct 04:30:48 04:34:50 23° 295° (WNW) 04:38:51 435.822 SSB
Uribyol 2 01 Oct 04:31:49 04:35:41 21° 296° (WNW) 04:39:33 436.500 FM
RS-15 01 Oct 04:32:25 04:42:34 41° 317° (NW) 04:52:46 29.354 - 29.394 USB, Beacon 29.352 USB
Uosat F 01 Oct 04:51:27 04:56:03 35° 98° (E) 05:00:37 435.120 FM
JAS-2 01 Oct 05:00:19 05:02:11 11° 88° (E) 05:04:05 435.800 - 435.900 CW/SSB, 435.910 FM
SO-50 01 Oct 05:01:18 05:05:59 51° 243° (WSW) 05:10:42 436.795 FM
AO-27 01 Oct 05:12:14 05:12:50 10° 302° (WNW) 05:13:26 436.795 MHz FM
UOSAT-12 01 Oct 05:28:59 05:33:13 31° 49° (NE) 05:37:23 437.025 FM, 437.400 FM
Gurwin Techsat 1B 01 Oct 05:35:51 05:38:04 13° 300° (WNW) 05:40:16 435.225 FM
AO-7 01 Oct 05:37:43 05:46:04 87° 108° (ESE) 05:54:23 29.400 - 29.500 MHz
Hamsat 01 Oct 05:41:09 05:42:23 11° 90° (E) 05:43:38 145.90 MHz
ISS 01 Oct 05:41:49 05:44:53 35° 225° (SW) 05:47:55 145.800 FM
OPAL 01 Oct 05:42:52 05:47:38 36° 260° (W) 05:52:27 ?
MaSat-1 01 Oct 05:47:58 05:52:51 79° 113° (ESE) 05:57:31 437.345 MHz
Uosat F 01 Oct 06:30:30 06:34:40 27° 294° (WNW) 06:38:49 435.120 FM
JAS-2 01 Oct 06:41:11 06:47:56 73° 103° (ESE) 06:55:26 435.800 - 435.900 CW/SSB, 435.910 FM
STRAND 1 01 Oct 06:44:17 06:49:17 62° 73° (ENE) 06:54:20 ?
RS-15 01 Oct 06:52:04 06:59:09 19° 350° (N) 07:06:18 29.354 - 29.394 USB, Beacon 29.352 USB
UOSAT-12 01 Oct 07:09:11 07:13:19 31° 247° (WSW) 07:17:23 437.025 FM, 437.400 FM
Hamsat 01 Oct 07:14:35 07:18:42 55° 286° (WNW) 07:22:46 145.90 MHz
MaSat-1 01 Oct 07:27:18 07:29:47 14° 309° (NW) 07:32:13 437.345 MHz
AO-7 01 Oct 07:32:01 07:37:50 22° 307° (NW) 07:43:40 29.400 - 29.500 MHz
SO-67 01 Oct 07:45:32 07:48:48 39° 98° (E) 07:52:03 435.3500 MHz FM
